Back to catalog

CZ-4C DEB

AliveLEO
NORAD 38304·DEBRIS·🇨🇳 China

Launched Mar 5, 2010 from Jiuquan Satellite Launch Center

Loading…

Next Passes (next 24 hours)

TLE

FreshSource: Space-Track

Epoch: Sep 14, 2026, 05:05 UTC

1 38304U 10009H   26257.21236495  .00000027  00000-0  26313-3 0  9999
2 38304  63.3053 126.8120 0321767  27.9312  61.6030 13.04261356620915

Track CZ-4C DEB in real time with AllMySat

Download on the App Store